Location: Choisy
(48.7685°N, 2.4187°E)
Time: 02:33:50
(UTC+00:00)

ATLAS 5 CENTAUR R/B - Pass Details

Date: 24 October 2021
Orbit: 497 x 1159 km, 63.4° (Epoch: 25 November)

Event Time Altitude Azimuth Distance (km) Brightness Sun altitude
Rises 17:48:26 0° 239° (WSW) 2,621 6.1 -11.3°
Reaches altitude 10° 17:50:34 10° 246° (WSW) 1,778 5.2 -11.6°
Maximum altitude 17:54:21 45° 320° (NW) 790 2.4 -12.3°
Drops below altitude 10° 17:58:43 10° 34° (NE) 2,046 3.9 -13.0°
Enters shadow 17:59:26 - 37° (NE) 2,325 4.1 -13.1°
